Greensboro, NC

2:50 AM EDT on May 29, 2017 (GMT -0400)
Piedmont Triad International

Weather History for KGSO - October, 2013

Change the Weather History Date:

Friday, October 25, 2013

  Actual Average Record
Temperature  
Mean Temperature 43 °F 57 °F  
Max Temperature 53 °F 68 °F 87 °F (1921)
Min Temperature 33 °F 46 °F 28 °F (1962)
Degree Days  
Heating Degree Days 22 9  
Month to date heating degree days 115 145  
Since 1 July heating degree days 131 176  
Cooling Degree Days 0 1  
Month to date cooling degree days 49 34  
Year to date cooling degree days 1380 1481  
Moisture  
Dew Point 28 °F    
Average Humidity 57    
Maximum Humidity 82    
Minimum Humidity 32    
Precipitation  
Precipitation 0.00 in 0.10 in 2.09 in (2007)
Month to date precipitation 1.11 2.51  
Year to date precipitation 41.63 35.49  
Sea Level Pressure  
Sea Level Pressure 30.30 in    
Wind  
Wind Speed 6 mph (NNW)    
Max Wind Speed 17 mph    
Max Gust Speed 24 mph    
Visibility 10 miles    
Events      
T = Trace of Precipitation, MM = Missing Value Source: NWS Daily Summary

Daily Weather History Graph

Daily Weather History Graph

Search for Another Location

Airport or City:

Trip Planner

Search our weather history database for the weather conditions in past years. The results will help you decide how hot, cold, wet, or windy it might be!

Date:

Astronomy

Oct. 25, 2013 Rise Set
Actual Time 7:35 AM EDT 6:31 PM EDT
Civil Twilight 7:09 AM EDT 6:57 PM EDT
Nautical Twilight 6:39 AM EDT 7:27 PM EDT
Astronomical Twilight 6:09 AM EDT 7:57 PM EDT
Moon 11:51 PM EDT (10/25) 1:12 PM EDT (10/25)
Length of Visible Light 11h 47m
Length of Day
10h 55m
Waning Gibbous, 62% of the Moon is Illuminated
Oct 25
Waning Gibbous
Oct 26
Last Quarter
Nov 3
New
Nov 10
First Quarter
Nov 17
Full

Hourly Weather History & Observations

Time (EDT) Temp. Windchill Dew Point Humidity Pressure Visibility Wind Dir Wind Speed Gust Speed Precip Events Conditions
12:54 AM 44.1 °F - 30.9 °F 60% 30.18 in 10.0 mi Calm Calm - N/A   Mostly Cloudy
1:54 AM 44.1 °F - 32.0 °F 63% 30.19 in 10.0 mi Calm Calm - N/A   Overcast
2:54 AM 42.1 °F 40.2 °F 30.9 °F 65% 30.20 in 10.0 mi NNE 3.5 mph - N/A   Mostly Cloudy
3:54 AM 42.1 °F 40.2 °F 30.9 °F 65% 30.21 in 10.0 mi North 3.5 mph - N/A   Overcast
4:54 AM 41.0 °F - 32.0 °F 70% 30.23 in 10.0 mi Calm Calm - N/A   Overcast
5:54 AM 39.0 °F - 33.1 °F 79% 30.25 in 10.0 mi Calm Calm - N/A   Mostly Cloudy
6:54 AM 37.9 °F 35.5 °F 32.0 °F 79% 30.27 in 10.0 mi North 3.5 mph - N/A   Scattered Clouds
7:54 AM 37.0 °F 34.5 °F 32.0 °F 82% 30.30 in 10.0 mi North 3.5 mph - N/A   Scattered Clouds
8:54 AM 41.0 °F 37.1 °F 30.9 °F 67% 30.31 in 10.0 mi North 5.8 mph - N/A   Partly Cloudy
9:54 AM 46.4 °F 41.5 °F 30.2 °F 53% 30.33 in 10.0 mi North 10.4 mph 16.1 mph N/A   Partly Cloudy
10:54 AM 46.4 °F 40.7 °F 28.4 °F 50% 30.34 in 10.0 mi NW 12.7 mph 18.4 mph N/A   Scattered Clouds
11:54 AM 48.2 °F - 28.4 °F 46% 30.34 in 10.0 mi North 9.2 mph 16.1 mph N/A   Scattered Clouds
12:54 PM 52.0 °F - 27.0 °F 38% 30.33 in 10.0 mi NNW 11.5 mph 19.6 mph N/A   Scattered Clouds
1:54 PM 52.0 °F - 25.0 °F 35% 30.31 in 10.0 mi WNW 11.5 mph - N/A   Scattered Clouds
2:54 PM 51.1 °F - 24.1 °F 35% 30.30 in 10.0 mi NNW 9.2 mph 20.7 mph N/A   Scattered Clouds
3:54 PM 52.0 °F - 23.0 °F 32% 30.30 in 10.0 mi NW 10.4 mph - N/A   Scattered Clouds
4:54 PM 52.0 °F - 24.1 °F 34% 30.31 in 10.0 mi Variable 6.9 mph - N/A   Partly Cloudy
5:54 PM 50.0 °F - 23.0 °F 35% 30.31 in 10.0 mi NW 8.1 mph - N/A   Partly Cloudy
6:54 PM 46.0 °F 43.1 °F 26.1 °F 46% 30.32 in 10.0 mi NW 5.8 mph - N/A   Partly Cloudy
7:54 PM 43.0 °F 39.5 °F 26.1 °F 51% 30.35 in 10.0 mi NNW 5.8 mph - N/A   Clear
8:54 PM 39.0 °F 36.8 °F 27.0 °F 62% 30.36 in 10.0 mi NW 3.5 mph - N/A   Clear
9:54 PM 37.9 °F 35.5 °F 27.0 °F 65% 30.36 in 10.0 mi NNW 3.5 mph - N/A   Clear
10:54 PM 33.1 °F 26.9 °F 26.1 °F 75% 30.38 in 10.0 mi WNW 6.9 mph - N/A   Clear
11:54 PM 35.1 °F - 26.1 °F 70% 30.37 in 10.0 mi Calm Calm - N/A   Clear